Back to catalog

STARLINK-30881

AliveCommunicationsVLEO
NORAD 58251·PAYLOAD·🇺🇸 United States

Launched Nov 8, 2023 from Cape Canaveral Space Force Station

Loading…

Next Passes (next 24 hours)

TLE

FreshSource: CelesTrak SupGP

Epoch: Sep 15, 2026, 02:44 UTC

1 58251C 23171X   26258.11437500  .00026676  00000+0  96608-3 0  2585
2 58251  43.0008 295.4451 0001470 262.1534 100.3518 15.27569536    11

Track STARLINK-30881 in real time with AllMySat

Download on the App Store